| time (UTC) | temp F | wind direction | speed MPH | gust MPH | rain 1hr in | rain 24hr in | rain mn in | humidity % | barometer mb |
| 20260510214533 | 69 | 0 | 2.0 | 10.0 | 0.00 | 0.00 | 0.00 | 30 | 1021.3 |
| 20260510213028 | 70 | 0 | 0.0 | 8.0 | 0.00 | 0.00 | 0.00 | 32 | 1021.5 |
| 20260510211534 | 69 | 0 | 0.0 | 12.0 | 0.00 | 0.00 | 0.00 | 35 | 1021.5 |
| 20260510210031 | 69 | 121 | 1.0 | 7.0 | 0.00 | 0.00 | 0.00 | 36 | 1021.5 |
| 20260510204536 | 69 | 0 | 0.0 | 6.0 | 0.00 | 0.00 | 0.00 | 36 | 1021.6 |
| 20260510203030 | 69 | 70 | 4.0 | 7.0 | 0.00 | 0.00 | 0.00 | 36 | 1021.8 |
| 20260510201532 | 67 | 28 | 3.0 | 10.0 | 0.00 | 0.00 | 0.00 | 31 | 1022.0 |
| 20260510200030 | 67 | 0 | 0.0 | 11.0 | 0.00 | 0.00 | 0.00 | 33 | 1022.2 |
| 20260510194547 | 67 | 84 | 0.0 | 7.0 | 0.00 | 0.00 | 0.00 | 32 | 1022.2 |
| 20260510193029 | 67 | 0 | 1.0 | 6.0 | 0.00 | 0.00 | 0.00 | 37 | 1022.3 |
| 20260510191528 | 67 | 57 | 1.0 | 7.0 | 0.00 | 0.00 | 0.00 | 39 | 1022.4 |
| 20260510190043 | 67 | 38 | 1.0 | 7.0 | 0.00 | 0.00 | 0.00 | 34 | 1022.4 |
| 20260510184532 | 67 | 22 | 3.0 | 11.0 | 0.00 | 0.00 | 0.00 | 36 | 1022.3 |
| 20260510183030 | 67 | 63 | 2.0 | 8.0 | 0.00 | 0.00 | 0.00 | 35 | 1022.2 |
| 20260510181533 | 66 | 77 | 2.0 | 6.0 | 0.00 | 0.00 | 0.00 | 35 | 1022.4 |
| 20260510180032 | 66 | 0 | 2.0 | 6.0 | 0.00 | 0.00 | 0.00 | 37 | 1022.5 |
| 20260510174530 | 65 | 0 | 0.0 | 7.0 | 0.00 | 0.00 | 0.00 | 37 | 1022.6 |
| 20260510173030 | 65 | 74 | 1.0 | 6.0 | 0.00 | 0.00 | 0.00 | 36 | 1022.5 |
| 20260510171530 | 65 | 0 | 2.0 | 8.0 | 0.00 | 0.00 | 0.00 | 36 | 1022.3 |
| 20260510170032 | 65 | 35 | 2.0 | 11.0 | 0.00 | 0.00 | 0.00 | 35 | 1022.2 |
| 20260510164531 | 66 | 28 | 1.0 | 9.0 | 0.00 | 0.00 | 0.00 | 43 | 1022.3 |
| 20260510163031 | 65 | 67 | 2.0 | 9.0 | 0.00 | 0.00 | 0.00 | 37 | 1022.0 |
| 20260510161528 | 63 | 0 | 0.0 | 7.0 | 0.00 | 0.00 | 0.00 | 40 | 1022.2 |
| 20260510160035 | 62 | 87 | 4.0 | 12.0 | 0.00 | 0.00 | 0.00 | 37 | 1022.3 |
| 20260510154532 | 62 | 51 | 1.0 | 7.0 | 0.00 | 0.00 | 0.00 | 38 | 1022.3 |
| 20260510153033 | 61 | 28 | 1.0 | 9.0 | 0.00 | 0.00 | 0.00 | 40 | 1022.3 |
| 20260510151529 | 61 | 0 | 1.0 | 8.0 | 0.00 | 0.00 | 0.00 | 43 | 1021.8 |
| 20260510150029 | 60 | 0 | 0.0 | 7.0 | 0.00 | 0.00 | 0.00 | 48 | 1021.8 |
| 20260510144534 | 59 | 0 | 1.0 | 6.0 | 0.00 | 0.00 | 0.00 | 47 | 1022.0 |
| 20260510143032 | 58 | 37 | 1.0 | 7.0 | 0.00 | 0.00 | 0.00 | 47 | 1022.1 |
| 20260510141536 | 57 | 0 | 0.0 | 4.0 | 0.00 | 0.00 | 0.00 | 50 | 1022.0 |
| 20260510140030 | 57 | 34 | 1.0 | 5.0 | 0.00 | 0.00 | 0.00 | 48 | 1022.0 |
| 20260510134532 | 57 | 39 | 0.0 | 7.0 | 0.00 | 0.00 | 0.00 | 49 | 1021.7 |
| 20260510133029 | 55 | 0 | 1.0 | 5.0 | 0.00 | 0.00 | 0.00 | 51 | 1021.4 |
| 20260510131535 | 55 | 48 | 0.0 | 4.0 | 0.00 | 0.00 | 0.00 | 52 | 1021.3 |
| 20260510130030 | 55 | 0 | 0.0 | 7.0 | 0.00 | 0.00 | 0.00 | 51 | 1021.1 |
| 20260510124532 | 55 | 61 | 1.0 | 5.0 | 0.00 | 0.00 | 0.00 | 49 | 1020.8 |
| 20260510123031 | 55 | 22 | 1.0 | 9.0 | 0.00 | 0.00 | 0.00 | 51 | 1020.5 |
| 20260510121533 | 54 | 32 | 2.0 | 8.0 | 0.00 | 0.00 | 0.00 | 50 | 1020.3 |
| 20260510120031 | 54 | 24 | 1.0 | 8.0 | 0.00 | 0.00 | 0.00 | 50 | 1019.6 |
| 20260510114541 | 55 | 47 | 2.0 | 8.0 | 0.00 | 0.00 | 0.00 | 49 | 1019.1 |
| 20260510113040 | 55 | 37 | 2.0 | 9.0 | 0.00 | 0.00 | 0.00 | 47 | 1019.1 |
| 20260510111533 | 55 | 5 | 4.0 | 9.0 | 0.00 | 0.00 | 0.00 | 47 | 1019.0 |
| 20260510110036 | 55 | 61 | 2.0 | 9.0 | 0.00 | 0.00 | 0.00 | 49 | 1018.9 |
| 20260510104532 | 55 | 75 | 1.0 | 8.0 | 0.00 | 0.00 | 0.00 | 50 | 1018.7 |
| 20260510103028 | 56 | 37 | 2.0 | 6.0 | 0.00 | 0.00 | 0.00 | 51 | 1018.7 |
| 20260510101530 | 56 | 44 | 2.0 | 6.0 | 0.00 | 0.00 | 0.00 | 52 | 1018.4 |
| 20260510100047 | 56 | 0 | 1.0 | 9.0 | 0.00 | 0.00 | 0.00 | 50 | 1018.1 |
| 20260510094536 | 56 | 59 | 1.0 | 4.0 | 0.00 | 0.00 | 0.00 | 51 | 1017.8 |
| 20260510093032 | 57 | 30 | 0.0 | 8.0 | 0.00 | 0.00 | 0.00 | 51 | 1017.6 |
| 20260510091532 | 57 | 51 | 2.0 | 6.0 | 0.00 | 0.00 | 0.00 | 52 | 1017.7 |
| 20260510090028 | 58 | 37 | 1.0 | 6.0 | 0.00 | 0.00 | 0.00 | 52 | 1017.2 |
| 20260510084532 | 59 | 65 | 1.0 | 5.0 | 0.00 | 0.00 | 0.00 | 53 | 1016.9 |
| 20260510083030 | 59 | 42 | 2.0 | 5.0 | 0.00 | 0.00 | 0.00 | 53 | 1017.2 |
| 20260510081532 | 59 | 90 | 2.0 | 7.0 | 0.00 | 0.00 | 0.00 | 54 | 1017.0 |
| 20260510080030 | 59 | 0 | 1.0 | 6.0 | 0.00 | 0.00 | 0.00 | 56 | 1016.5 |
| 20260510074537 | 59 | 67 | 2.0 | 6.0 | 0.00 | 0.00 | 0.00 | 60 | 1016.3 |
| 20260510073031 | 59 | 0 | 1.0 | 4.0 | 0.00 | 0.00 | 0.00 | 62 | 1016.2 |
| 20260510071532 | 59 | 19 | 1.0 | 7.0 | 0.00 | 0.00 | 0.00 | 65 | 1016.2 |
| 20260510070034 | 59 | 0 | 0.0 | 3.0 | 0.00 | 0.00 | 0.00 | 65 | 1015.9 |
| 20260510064529 | 60 | 0 | 0.0 | 4.0 | 0.00 | 0.01 | 0.00 | 63 | 1015.6 |
| 20260510063030 | 61 | 0 | 0.0 | 1.0 | 0.00 | 0.01 | 0.00 | 64 | 1015.6 |
| 20260510061531 | 62 | 0 | 0.0 | 1.0 | 0.00 | 0.01 | 0.00 | 64 | 1015.7 |
| 20260510060033 | 62 | 0 | 0.0 | 0.0 | 0.00 | 0.01 | 0.00 | 63 | 1015.7 |
| 20260510054532 | 63 | 0 | 0.0 | 2.0 | 0.00 | 0.01 | 0.00 | 60 | 1015.1 |
| 20260510053032 | 63 | 0 | 0.0 | 3.0 | 0.00 | 0.01 | 0.00 | 60 | 1014.6 |
| 20260510051535 | 64 | 0 | 0.0 | 3.0 | 0.00 | 0.01 | 0.00 | 61 | 1014.4 |
| 20260510050029 | 64 | 0 | 0.0 | 2.0 | 0.00 | 0.01 | 0.00 | 60 | 1014.0 |
| 20260510044532 | 66 | 0 | 0.0 | 5.0 | 0.00 | 0.01 | 0.01 | 57 | 1014.0 |
| 20260510043030 | 66 | 0 | 1.0 | 6.0 | 0.00 | 0.01 | 0.01 | 54 | 1013.7 |
| 20260510041542 | 67 | 0 | 1.0 | 10.0 | 0.00 | 0.01 | 0.01 | 52 | 1013.5 |
| 20260510040033 | 67 | 0 | 1.0 | 6.0 | 0.00 | 0.01 | 0.01 | 52 | 1013.2 |
| 20260510034534 | 67 | 47 | 2.0 | 9.0 | 0.00 | 0.01 | 0.01 | 51 | 1012.8 |
| 20260510033031 | 68 | 29 | 2.0 | 9.0 | 0.00 | 0.01 | 0.01 | 52 | 1012.4 |
| 20260510031533 | 68 | 49 | 3.0 | 9.0 | 0.00 | 0.01 | 0.01 | 53 | 1012.2 |
| 20260510030031 | 67 | 49 | 1.0 | 3.0 | 0.00 | 0.01 | 0.01 | 57 | 1012.3 |
| 20260510024531 | 66 | 0 | 0.0 | 3.0 | 0.00 | 0.01 | 0.01 | 58 | 1012.5 |
| 20260510023028 | 68 | 0 | 0.0 | 0.0 | 0.00 | 0.01 | 0.01 | 57 | 1011.8 |
| 20260510021535 | 69 | 0 | 0.0 | 0.0 | 0.00 | 0.01 | 0.01 | 53 | 1011.1 |
| 20260510020033 | 70 | 0 | 0.0 | 1.0 | 0.00 | 0.01 | 0.01 | 52 | 1010.7 |
| 20260510014532 | 71 | 61 | 0.0 | 5.0 | 0.00 | 0.01 | 0.01 | 48 | 1010.4 |
| 20260510013037 | 71 | 0 | 1.0 | 9.0 | 0.00 | 0.01 | 0.01 | 47 | 1010.3 |
| 20260510011530 | 71 | 52 | 1.0 | 10.0 | 0.00 | 0.01 | 0.01 | 47 | 1010.2 |
| 20260510010030 | 72 | 34 | 2.0 | 11.0 | 0.00 | 0.01 | 0.01 | 46 | 1010.0 |
| 20260510004529 | 73 | 41 | 0.0 | 6.0 | 0.00 | 0.01 | 0.01 | 48 | 1009.7 |
| 20260510003033 | 74 | 0 | 0.0 | 4.0 | 0.00 | 0.01 | 0.01 | 48 | 1009.5 |
| 20260510001538 | 74 | 0 | 0.0 | 3.0 | 0.00 | 0.01 | 0.01 | 46 | 1009.4 |
| 20260510000031 | 75 | 49 | 0.0 | 10.0 | 0.00 | 0.01 | 0.01 | 46 | 1009.2 |
| 20260509234530 | 75 | 5 | 2.0 | 10.0 | 0.00 | 0.01 | 0.01 | 44 | 1009.1 |
| 20260509233028 | 75 | 56 | 1.0 | 6.0 | 0.00 | 0.01 | 0.01 | 45 | 1008.8 |
| 20260509231528 | 76 | 0 | 1.0 | 6.0 | 0.00 | 0.01 | 0.01 | 44 | 1008.7 |
| 20260509230029 | 77 | 40 | 2.0 | 11.0 | 0.00 | 0.01 | 0.01 | 41 | 1008.6 |
| 20260509224529 | 78 | 58 | 1.0 | 9.0 | 0.00 | 0.01 | 0.01 | 39 | 1008.6 |
| 20260509223031 | 80 | 299 | 1.0 | 11.0 | 0.00 | 0.01 | 0.01 | 35 | 1008.1 |
| 20260509221530 | 81 | 350 | 4.0 | 18.0 | 0.00 | 0.01 | 0.01 | 30 | 1007.8 |
| 20260509220028 | 81 | 288 | 2.0 | 8.0 | 0.00 | 0.01 | 0.01 | 33 | 1007.5 |